Location: Long Island Community Building
(39.9491°N, 99.5338°W)
Time: 05:41:34
(UTC+00:00)

Okean-O - Pass Details

Date: 06 December 2019
Orbit: 639 x 641 km, 98.2° (Epoch: 17 January)

Event Time Altitude Azimuth Distance (km) Brightness Sun altitude
Rises 23:42:13 0° 139° (SE) 2,934 5.9 -5.8°
Reaches altitude 10° 23:44:38 10° 128° (SE) 2,029 4.9 -6.3°
Maximum altitude 23:48:25 28° 69° (ENE) 1,194 3.5 -6.9°
Drops below altitude 10° 23:52:13 10° 10° (N) 2,041 4.9 -7.6°
Sets 23:54:39 0° 359° (N) 2,955 5.8 -8.0°
